Location: Larrial
(48.2758°N, 4.5331°W)
Time: 11:11:07
(UTC+00:00)

XW-2F - Pass Details

Date: 30 November 2021
Orbit: 495 x 515 km, 97.5° (Epoch: 16 January)

Event Time Altitude Azimuth Distance (km) Brightness Sun altitude
Rises 06:41:49 0° 12° (NNE) 2,651 ? -10.5°
Reaches altitude 10° 06:43:56 10° 12° (NNE) 1,760 ? -10.1°
Maximum altitude 06:47:44 85° 284° (WNW) 527 ? -9.6°
Drops below altitude 10° 06:51:30 10° 196° (SSW) 1,743 ? -9.0°
Sets 06:53:35 0° 196° (SSW) 2,623 ? -8.7°
